0 HST 1 20580U 90037B 26207.12481160 .00006250 00000-0 19420-3 0 9996 2 20580 28.4719 174.3618 0001732 214.0601 145.9884 15.31157574794542 0 ISS (ZARYA) 1 25544U 98067A 26207.08830238 .00010158 00000-0 19105-3 0 9993 2 25544 51.6316 107.5836 0006935 338.3897 21.6798 15.49174705577788 0 CXO 1 25867U 99040B 26209.04610948 .00000804 00000-0 00000-0 0 9993 2 25867 56.7072 115.6151 7770389 309.8621 0.6215 0.37793771 17474